Flag for Germany Weather past 2 weeks in Erlangen, Bavaria, Germany

Now
75 °F

Sunny.


Feels Like: 77 °F
Forecast: 62 / 80 °F
Wind: 2 mph from North

Location: Nuernberg

Current Time: Jul 5, 2015 at 8:02:49 AM

Latest Report: Jul 5, 2015 at 7:20 AM


Visibility: 10 mi

Pressure: 30.09 "Hg

Humidity: 65%

Dew point: 63 °F

Location of ErlangenLocation

Historic Weather in Erlangen — Graph

°F

Erlangen temperature yesterday

Maximum temperature yesterday: 99 °F (at 5:20 PM)
Minimum temperature yesterday: 68 °F (at 5:20 AM)
Average temperature yesterday: 84 °F

Past Weeks' High & Low Weather Summary

 TemperatureHumidityPressure
High99 °F (Jul 4, 5:20 PM)100% (Jun 22, 4:20 AM)30.27 "Hg (Jun 22, 4:20 AM)
Low45 °F (Jun 25, 5:20 AM)20% (Jun 30, 4:20 PM)29.71 "Hg (Jun 23, 12:20 AM)
Average66 °F65%30.11 "Hg
* Reported Jun 20 6:20 AM — Jul 5 6:50 AM, Erlangen, Weather by CustomWeather, © 2015

Note: Actual official high and low records may vary slightly from our data, if they occured in-between our weather recording intervals... More about our weather records

Advertising

Erlangen weather history for previous 24 hours

 ConditionsComfort  
Time TempWeatherWind HumidityBarometerVisibility
6:50 AM
Sun, Jul 5
72 °FSunny.6 mph73%30.09 "Hg10 mi
6:20 AM68 °FSunny.6 mph78%30.09 "Hg10 mi
5:50 AM70 °FClear.5 mph78%30.09 "Hg10 mi
5:20 AM72 °FPassing clouds.5 mph73%30.09 "HgN/A
4:50 AM73 °FClear.5 mph69%30.09 "Hg10 mi
4:20 AM73 °FPassing clouds.3 mph69%30.09 "HgN/A
3:50 AM72 °FClear.6 mph73%30.09 "Hg10 mi
3:20 AM73 °FClear.6 mph69%30.09 "Hg10 mi
2:50 AM73 °FClear.3 mph69%30.09 "Hg10 mi
2:20 AM75 °FClear.2 mph65%30.09 "Hg10 mi
1:50 AM77 °FClear.3 mph61%30.09 "Hg10 mi
1:20 AM79 °FClear.5 mph58%30.09 "Hg10 mi
12:50 AM79 °FClear.6 mph58%30.09 "Hg10 mi
12:20 AM82 °FClear.6 mph51%30.09 "Hg10 mi
11:50 PM
Sat, Jul 4
81 °FPassing clouds.5 mph54%30.09 "HgN/A
11:20 PM82 °FClear.5 mph51%30.12 "Hg10 mi
10:50 PM82 °FPassing clouds.5 mph51%30.12 "HgN/A
10:20 PM84 °FBroken clouds.5 mph48%30.12 "HgN/A
9:50 PM82 °FBroken clouds.3 mph51%30.09 "HgN/A
9:20 PM84 °FBroken clouds.3 mph45%30.09 "HgN/A
8:50 PM86 °FPartly sunny.2 mph43%30.12 "HgN/A
8:20 PM90 °FPartly sunny.1 mph33%30.09 "HgN/A
7:50 PM91 °FPartly sunny.7 mph32%30.09 "HgN/A
7:20 PM91 °FPartly sunny.6 mph32%30.09 "HgN/A
6:50 PM95 °FScattered clouds.7 mph26%30.09 "HgN/A
6:20 PM97 °FPassing clouds.5 mph25%30.09 "HgN/A
5:50 PM97 °FPassing clouds.3 mph23%30.09 "HgN/A
5:20 PM99 °FSunny.1 mph24%30.09 "Hg10 mi
4:50 PM97 °FSunny.3 mph23%30.12 "Hg10 mi
4:20 PM97 °FSunny.6 mph22%30.12 "Hg10 mi
3:50 PM97 °FSunny.6 mph23%30.12 "Hg10 mi
3:20 PM97 °FSunny.3 mph22%30.12 "Hg10 mi
2:50 PM97 °FSunny.6 mph23%30.12 "Hg10 mi
2:20 PM97 °FSunny.5 mph23%30.15 "Hg10 mi
1:50 PM95 °FPassing clouds.6 mph25%30.15 "HgN/A
1:20 PM93 °FPassing clouds.7 mph30%30.15 "HgN/A
12:50 PM93 °FSunny.8 mph30%30.18 "Hg10 mi
12:20 PM93 °FPassing clouds.8 mph30%30.18 "HgN/A
11:50 AM91 °FPassing clouds.9 mph32%30.18 "HgN/A
11:20 AM90 °FSunny.10 mph33%30.18 "Hg10 mi
10:50 AM88 °FSunny.10 mph38%30.18 "Hg10 mi
10:20 AM86 °FPassing clouds.8 mph40%30.18 "HgN/A
9:50 AM84 °FPassing clouds.7 mph45%30.18 "HgN/A
9:20 AM82 °FPassing clouds.7 mph48%30.18 "HgN/A
8:50 AM79 °FPassing clouds.6 mph54%30.21 "HgN/A
8:20 AM77 °FPassing clouds.5 mph57%30.21 "HgN/A
Weather by CustomWeather, © 2015

See weather overviewHow to use our weather pages